Retour au catalogue

STARLINK-32693

ActifCommunicationsVLEO
NORAD 62437·PAYLOAD·🇺🇸 United States

Lancé Dec 29, 2024 depuis Vandenberg Space Force Base

Loading…

Prochains Passages (prochaines 24 heures)

TLE

FraisSource: CelesTrak SupGP

Époque: Sep 15, 2026, 02:23 UTC

1 62437C 24251F   26258.09979167 -.00064697  00000+0 -19115-2 0  2587
2 62437  53.1577 170.6451 0001299  91.1155 338.5185 15.34423237    17

Suivez STARLINK-32693 en temps réel avec AllMySat

Download on the App Store